Regional Weather Roundup
Issued by NWS

Home | Current Version | Previous Version | Graphics & Text | Print | Product List | Glossary On
Versions: 1 2 3 4 5 6 7 8 9 10 11 12 13 14 15 16 17 18 19 20 21 22 23 24 25 26 27
000
ASUS45 KSLC 251910
RWRUT

UTAH REGIONAL WEATHER ROUNDUP
NATIONAL WEATHER SERVICE SALT LAKE CITY UT
100 PM MDT WED MAY 25 2016

UTZ001>011-023>025-252000-

NORTHERN UTAH

CITY           SKY/WX    TMP DP  RH WIND       PRES   REMARKS
BRIGHAM CITY     N/A     59  45  60 NW8       30.05R
DUGWAY         MOSUNNY   66  36  32 NW7       30.04F
HILL AFB       MOSUNNY   59  38  45 W5        30.04F
LOGAN          LGT RAIN  51  45  79 SW14      30.05R
OGDEN          MOSUNNY   62  39  42 SW10      30.02F
PROVO AIRPORT  PTSUNNY   66  34  30 SW9       30.02F
SALT LAKE CITY PTSUNNY   64  39  39 W8        30.02F
VERNAL         SUNNY     64  28  25 SW7       30.02F
WENDOVER       MOSUNNY   63  36  36 S6        30.04F
HEBER CITY     MOSUNNY   63  32  31 SW13G18   30.02F
WEST JORDAN    CLOUDY    59  39  47 W15G22    30.05S

$$

UTZ012>022-026-027-252000-

SOUTHERN/CENTRAL UTAH

CITY           SKY/WX    TMP DP  RH WIND       PRES   REMARKS
BLANDING       SUNNY     66  16  14 S14G24    30.17F
BRYCE CANYON   SUNNY     56  19  23 S8G25     30.13F
CEDAR CITY     SUNNY     65  25  22 VRB7      30.02F
DELTA          MOSUNNY   63  32  31 SW3       30.03F
HANKSVILLE       N/A    N/A N/A N/A MISG        N/A
MILFORD        MOSUNNY   68  22  17 SE10      30.01F
MOAB/CYNLANDS  SUNNY     71  19  14 MISG      30.00F
PRICE          CLOUDY    56  29  35 SE18G25   30.07R
ST GEORGE      PTCLDY    73  25  16 NW8       29.97F

$$

REGIONAL REPORTS     COLORADO/ARIZONA

CITY           SKY/WX    TMP DP  RH WIND       PRES   REMARKS
CRAIG, CO      MOSUNNY   64  27  24 SW13G24   30.05F
GRAND JUNCTION SUNNY     68  27  21 N8        30.02F
RIFLE          MOSUNNY   67  23  19 W16G25    30.03F
MONTROSE       SUNNY     70  10  10 W18G25    30.07F
CORTEZ         SUNNY     67  15  13 SW13G22   30.11F
PAGE, AZ       SUNNY     72  12  10 S5        30.00F
GRAND CANYON   SUNNY     63  17  17 MISG      30.12F
KINGMAN        SUNNY     74  20  13 SW24G33   30.00S
FLAGSTAFF      NOT AVBL

$$

REGIONAL REPORTS    NEVADA/IDAHO/WYOMING

CITY           SKY/WX    TMP DP  RH WIND       PRES   REMARKS
LAS VEGAS, NV  MOSUNNY   77  31  18 NW6       29.91F
ELY            PTSUNNY   56  34  43 W10G20    30.08F
ELKO           MOSUNNY   60  40  47 VRB6      30.04F
POCATELLO, ID  CLOUDY    61  42  49 W14G21    30.02F
BURLEY         MOSUNNY   62  41  46 W13G21    30.02F
EVANSTON, WY   CLOUDY    54  34  46 W17       30.07F
ROCK SPRINGS   LGT RAIN  45  38  76 SW20G25   30.07R
KEMMERER         N/A     50  36  57 W8        30.10F

$$




USA.gov is the U.S. government's official web portal to all federal, state and local government web resources and services.